C1219 Weather Reports


time (UTC)temp
C
wind
direction
speed
KPH
gust
KPH
rain 1hr
cm
rain 24hr
cm
rain mn
cm
humidity
%
barometer
mb
20260504151050 7 266 4.8 12.9 0.13 0.18 0.18 84 1006.7
20260504150547 7 263 1.6 12.9 0.10 0.15 0.15 85 1006.7
20260504141048 9 302 4.8 16.1 0.00 0.05 0.05 63 1005.9
20260504140548 9 290 4.8 16.1 0.00 0.05 0.05 63 1005.7
20260504130547 8 186 1.6 9.7 0.00 0.05 0.05 76 1005.4
20260504110550 5 208 1.6 8.0 0.00 0.05 0.05 87 1006.4
20260504100550 4 0 0.0 6.4 0.05 0.05 0.05 86 1006.4
20260504090112 4 223 1.6 4.8 0.00 0.00 0.00 73 1006.6
20260504081553 4 0 0.0 4.8 0.00 0.00 0.00 72 1006.7
20260504081048 4 222 0.0 4.8 0.00 0.00 0.00 72 1006.7
20260504080547 4 186 1.6 4.8 0.00 0.00 0.00 71 1006.7
20260504050548 5 0 0.0 3.2 0.00 0.00 0.00 49 1007.0
20260504045550 5 221 0.0 4.8 0.00 0.00 0.00 50 1007.1
20260504045048 5 229 1.6 4.8 0.00 0.00 0.00 49 1007.2
20260504044611 5 0 1.6 6.4 0.00 0.00 0.00 50 1007.2
20260504044048 4 209 1.6 9.7 0.00 0.00 0.00 50 1007.3
20260504043548 5 198 1.6 9.7 0.00 0.00 0.00 52 1007.3
20260504043101 5 224 0.0 3.2 0.00 0.00 0.00 48 1007.4
20260504042550 5 0 0.0 3.2 0.00 0.00 0.00 48 1007.4
20260504042048 5 0 1.6 3.2 0.00 0.00 0.00 47 1007.4
20260504041557 5 215 1.6 4.8 0.00 0.00 0.00 48 1007.4
20260504041048 5 234 1.6 4.8 0.00 0.00 0.00 48 1007.4
20260504040548 5 196 0.0 6.4 0.00 0.00 0.00 48 1007.4
20260504040120 5 184 0.0 9.7 0.00 0.00 0.00 48 1007.3
20260504035552 5 241 1.6 9.7 0.00 0.00 0.00 50 1007.4
20260504035049 5 227 1.6 8.0 0.00 0.00 0.00 49 1007.3
20260504034607 5 285 3.2 6.4 0.00 0.00 0.00 50 1007.3
20260504034049 4 231 3.2 6.4 0.00 0.00 0.00 52 1007.3
20260504033548 3 251 1.6 4.8 0.00 0.00 0.00 55 1007.4
20260504033055 3 0 0.0 3.2 0.00 0.00 0.00 53 1007.3
20260504032548 3 0 0.0 11.3 0.00 0.00 0.00 54 1007.4
20260504032048 3 248 1.6 11.3 0.00 0.00 0.00 54 1007.3
20260504031550 3 246 3.2 6.4 0.00 0.00 0.00 56 1007.4
20260504031047 3 248 1.6 4.8 0.00 0.00 0.00 59 1007.3
20260504030548 3 253 1.6 9.7 0.00 0.00 0.00 56 1007.4
20260504030052 4 254 3.2 9.7 0.00 0.00 0.00 54 1007.4
20260504025552 4 272 3.2 9.7 0.00 0.00 0.00 53 1007.5
20260504025049 4 273 1.6 6.4 0.00 0.00 0.00 54 1007.4
20260504024550 4 247 1.6 6.4 0.00 0.00 0.00 53 1007.5
20260504024047 4 267 1.6 9.7 0.00 0.00 0.00 53 1007.5
20260504023549 4 265 3.2 9.7 0.00 0.00 0.00 53 1007.5
20260504023051 4 287 3.2 6.4 0.00 0.00 0.00 53 1007.4
20260504022547 4 257 1.6 6.4 0.00 0.00 0.00 53 1007.5
20260504022047 4 0 0.0 3.2 0.00 0.00 0.00 54 1007.6
20260504021550 4 0 0.0 3.2 0.00 0.00 0.00 53 1007.5
20260504021048 5 0 0.0 3.2 0.00 0.00 0.00 53 1007.6
20260504020551 5 242 1.6 3.2 0.00 0.00 0.00 53 1007.6
20260504020050 4 202 1.6 4.8 0.00 0.00 0.00 54 1007.6
20260504015548 4 267 1.6 6.4 0.00 0.00 0.00 53 1007.7
20260504015048 4 268 1.6 6.4 0.00 0.00 0.00 54 1007.7
20260504014549 4 219 1.6 6.4 0.00 0.00 0.00 54 1007.7
20260504014048 4 213 0.0 3.2 0.00 0.00 0.00 55 1007.6
20260504013547 4 0 0.0 3.2 0.00 0.00 0.00 55 1007.6
20260504013103 4 0 1.6 3.2 0.00 0.00 0.00 54 1007.6
20260504012547 4 217 0.0 3.2 0.00 0.00 0.00 54 1007.6
20260504012047 4 0 0.0 3.2 0.00 0.00 0.00 54 1007.6
20260504011551 4 256 0.0 3.2 0.00 0.00 0.00 53 1007.5
20260504011047 5 0 0.0 3.2 0.00 0.00 0.00 53 1007.5
20260504010547 5 0 1.6 3.2 0.00 0.00 0.00 52 1007.4
20260504010058 5 0 0.0 3.2 0.00 0.00 0.00 52 1007.4
20260504005547 5 0 0.0 3.2 0.00 0.00 0.00 52 1007.3
20260504005047 5 212 0.0 3.2 0.00 0.00 0.00 52 1007.3
20260504004606 5 212 0.0 4.8 0.00 0.00 0.00 52 1007.2
20260504004049 5 0 0.0 4.8 0.00 0.00 0.00 51 1007.2
20260504003548 5 230 1.6 4.8 0.00 0.00 0.00 52 1007.2
20260504003051 5 205 1.6 4.8 0.00 0.00 0.00 51 1007.2
20260504002547 5 205 3.2 4.8 0.00 0.00 0.00 51 1007.1
20260504002048 5 0 0.0 3.2 0.00 0.00 0.00 53 1007.1
20260504001552 5 0 0.0 3.2 0.00 0.00 0.00 51 1007.0
20260504001049 5 282 0.0 3.2 0.00 0.00 0.00 50 1007.1
20260504000546 5 0 0.0 3.2 0.00 0.00 0.00 50 1007.1
20260504000056 6 0 0.0 3.2 0.00 0.00 0.00 49 1007.1
20260503235546 6 0 0.0 11.3 0.00 0.10 0.00 48 1007.0
20260503235047 6 318 1.6 12.9 0.00 0.10 0.00 48 1007.0
20260503234557 6 259 1.6 12.9 0.00 0.10 0.00 48 1007.1
20260503234048 6 15 3.2 12.9 0.00 0.10 0.00 47 1007.0
20260503233548 6 267 0.0 11.3 0.00 0.10 0.00 50 1007.0
20260503233055 6 0 3.2 14.5 0.00 0.10 0.00 48 1007.0
20260503232548 6 214 3.2 14.5 0.00 0.10 0.00 47 1006.9
20260503232048 6 0 0.0 17.7 0.00 0.10 0.00 47 1007.0
20260503231549 7 259 3.2 17.7 0.00 0.10 0.00 46 1006.9
20260503231048 6 257 3.2 11.3 0.00 0.10 0.00 46 1006.9
20260503230551 7 246 0.0 19.3 0.00 0.10 0.00 46 1007.0
20260503230058 7 350 6.4 19.3 0.00 0.10 0.00 45 1006.9
20260503225546 7 286 6.4 17.7 0.00 0.10 0.00 46 1006.9
20260503225048 7 250 3.2 11.3 0.00 0.10 0.00 46 1006.8
20260503224553 7 265 1.6 11.3 0.00 0.10 0.00 47 1007.0
20260503224048 7 0 1.6 11.3 0.00 0.10 0.00 46 1006.8
20260503223548 7 28 0.0 9.7 0.00 0.10 0.00 45 1006.8
20260503223058 7 327 1.6 14.5 0.00 0.10 0.00 44 1006.9
20260503222548 7 0 1.6 14.5 0.00 0.10 0.00 46 1006.9
20260503222048 7 94 3.2 11.3 0.00 0.10 0.00 45 1006.9
20260503221608 7 9 3.2 9.7 0.00 0.10 0.00 46 1007.0
20260503221048 7 0 1.6 9.7 0.00 0.10 0.00 47 1007.0
20260503220548 7 17 1.6 9.7 0.00 0.10 0.00 46 1007.0
20260503220109 7 24 3.2 11.3 0.00 0.10 0.00 45 1007.0
20260503215548 7 203 4.8 11.3 0.00 0.10 0.00 44 1006.9
20260503215048 7 221 1.6 14.5 0.00 0.10 0.00 46 1006.8
20260503214556 7 269 0.0 24.1 0.00 0.10 0.00 45 1006.9
20260503214049 7 294 4.8 24.1 0.00 0.10 0.00 45 1007.0
20260503213547 7 350 9.7 24.1 0.00 0.10 0.00 44 1006.9
20260503213054 7 294 8.0 17.7 0.00 0.10 0.00 45 1006.9
20260503212548 7 208 0.0 8.0 0.00 0.10 0.00 47 1006.9
20260503212047 7 204 1.6 16.1 0.00 0.10 0.00 47 1006.9
20260503211556 7 206 3.2 16.1 0.00 0.10 0.00 46 1006.8
20260503211047 7 257 4.8 17.7 0.00 0.10 0.00 46 1006.9
20260503210547 7 231 4.8 17.7 0.00 0.10 0.00 45 1006.8
20260503210052 8 248 4.8 14.5 0.00 0.10 0.00 45 1006.9
20260503205547 7 205 6.4 14.5 0.00 0.10 0.00 46 1006.8
20260503205049 7 0 3.2 12.9 0.00 0.10 0.00 48 1006.8
20260503204558 7 215 3.2 12.9 0.00 0.10 0.00 50 1006.8
20260503204048 6 255 4.8 19.3 0.00 0.10 0.00 50 1006.9
20260503203548 6 323 3.2 19.3 0.00 0.10 0.00 49 1006.8
20260503203056 6 234 4.8 22.5 0.00 0.10 0.00 51 1006.7
20260503202548 6 238 0.0 22.5 0.00 0.10 0.00 54 1006.9
20260503202048 6 269 4.8 19.3 0.00 0.10 0.00 53 1006.9
20260503201553 6 109 9.7 19.3 0.00 0.10 0.00 51 1006.9
20260503201047 6 238 4.8 25.7 0.00 0.10 0.00 50 1006.9
20260503200547 6 273 6.4 25.7 0.00 0.10 0.00 50 1006.9
20260503200056 6 289 4.8 19.3 0.00 0.10 0.00 50 1006.9
20260503195548 6 317 4.8 19.3 0.00 0.10 0.00 50 1006.8
20260503195046 6 234 4.8 17.7 0.00 0.10 0.00 50 1006.9
20260503194551 6 251 6.4 19.3 0.00 0.10 0.00 51 1007.1
20260503194048 6 286 8.0 19.3 0.00 0.10 0.00 50 1007.1
20260503193549 6 238 8.0 20.9 0.00 0.10 0.00 50 1007.1
20260503193054 7 227 8.0 20.9 0.00 0.10 0.00 48 1007.1
20260503192548 6 319 4.8 20.9 0.00 0.10 0.00 47 1007.1
20260503192048 7 294 1.6 17.7 0.00 0.10 0.00 48 1007.1
20260503191553 6 241 6.4 20.9 0.00 0.10 0.00 46 1007.2
20260503191047 6 290 4.8 20.9 0.00 0.10 0.00 47 1007.2
20260503190551 7 348 3.2 12.9 0.00 0.10 0.00 49 1007.2
20260503190052 7 45 1.6 20.9 0.00 0.10 0.00 46 1007.2
20260503185550 7 17 4.8 20.9 0.00 0.10 0.00 47 1007.1
20260503185050 7 0 3.2 14.5 0.00 0.10 0.00 48 1007.1
20260503184559 6 289 4.8 16.1 0.00 0.10 0.00 48 1007.2
20260503184048 6 45 3.2 24.1 0.00 0.10 0.00 47 1007.3
20260503183548 6 19 4.8 24.1 0.00 0.10 0.00 48 1007.3
20260503183055 7 254 3.2 25.7 0.00 0.10 0.00 48 1007.2
20260503182552 7 321 3.2 25.7 0.00 0.10 0.00 47 1007.2
20260503182048 6 350 8.0 33.8 0.00 0.10 0.00 47 1007.3
20260503181553 6 321 9.7 33.8 0.00 0.10 0.00 49 1007.3
20260503181047 6 294 16.1 33.8 0.00 0.10 0.00 47 1007.2
20260503180547 7 298 9.7 19.3 0.00 0.10 0.00 45 1007.2
20260503180109 7 306 6.4 16.1 0.00 0.10 0.00 44 1007.2
20260503175550 7 28 1.6 12.9 0.00 0.10 0.00 45 1007.2
20260503175106 7 256 3.2 14.5 0.00 0.10 0.00 47 1007.2
20260503174553 6 209 1.6 14.5 0.00 0.10 0.00 49 1007.2
20260503174050 6 288 6.4 14.5 0.00 0.10 0.00 50 1007.3
20260503173548 6 14 3.2 22.5 0.00 0.10 0.00 50 1007.2
20260503173056 6 31 4.8 22.5 0.00 0.10 0.00 50 1007.2
20260503172546 6 250 9.7 19.3 0.00 0.10 0.00 50 1007.2
20260503172048 6 33 4.8 17.7 0.00 0.10 0.00 50 1007.2
20260503171550 6 286 3.2 19.3 0.00 0.10 0.00 49 1007.2
20260503171048 6 346 3.2 22.5 0.00 0.10 0.00 46 1007.3
20260503170548 7 293 3.2 22.5 0.00 0.10 0.00 48 1007.3
20260503160107 6 77 4.8 12.9 0.00 0.10 0.00 52 1007.6